STARLINK BL

Last updated on June 13, 2020, 12:02 a.m. UTC

1 45715U 20035BL  20164.66668981  .04829897  00000-0  20982-1 0  9994
2 45715  52.9989 127.3978 0047595  77.7688 238.0557 15.78454694  2269

Satellite is not in orbit.